Location: Unspecified
(0.0000°N, 0.0000°E)
Time: 05:25:49
(UTC+00:00)

S-56A Canister/Altair - Visible Passes

Search period start: 25 June 2017 00:00
Search period end: 05 July 2017 00:00
Orbit: 637 x 2497 km, 38.9° (Epoch: 24 June)

Date Brightness Start Highest point End Pass type
(mag) Time Alt. Az. Time Alt. Az. Time Alt. Az.
25 Jun 11.0 00:40:27 30° NNE 00:40:27 30° NNE 00:46:46 10° NE visible
25 Jun 11.1 02:37:51 20° NW 02:40:28 21° NNW 02:50:36 10° NNE visible
26 Jun 11.2 00:09:05 23° NE 00:09:05 23° NE 00:13:26 10° NE visible
26 Jun 11.1 02:06:28 23° NW 02:06:53 23° NNW 02:17:49 10° NNE visible
26 Jun 11.4 23:37:39 17° NE 23:37:39 17° NE 23:40:00 10° NE visible
27 Jun 11.0 01:35:01 26° NNW 01:35:01 26° NNW 01:44:53 10° NNE visible
27 Jun 11.6 23:06:08 11° NE 23:06:08 11° NE 23:06:31 10° NE visible
28 Jun 11.0 01:03:30 26° N 01:03:30 26° N 01:11:50 10° NNE visible
29 Jun 11.1 00:31:54 25° N 00:31:54 25° N 00:38:43 10° NNE visible
29 Jun 11.6 02:33:40 10° NNW 02:36:28 11° NNW 02:39:20 10° N visible
30 Jun 11.2 00:00:14 23° N 00:00:14 23° N 00:05:31 10° NNE visible
30 Jun 11.6 01:58:08 10° NW 02:02:42 12° NNW 02:07:30 10° N visible
30 Jun 11.2 23:28:25 20° NNE 23:28:25 20° NNE 23:32:16 10° NNE visible
01 Jul 11.5 01:25:46 12° NW 01:29:01 13° NNW 01:35:00 10° N visible
01 Jul 10.4 20:34:23 10° SSW 20:34:46 12° SSW 20:34:46 12° SSW visible
01 Jul 11.3 22:56:30 16° NNE 22:56:30 16° NNE 22:58:58 10° NNE visible
02 Jul 11.4 00:53:49 14° NNW 00:55:24 15° NNW 01:02:14 10° N visible
02 Jul 12.1 05:20:05 10° NNE 05:21:06 10° NNE 05:22:08 10° NNE visible
02 Jul 9.4 20:02:26 10° SSW 20:05:22 27° S 20:05:22 27° S visible
02 Jul 11.3 22:24:21 13° NNE 22:24:21 13° NNE 22:25:39 10° NE visible
03 Jul 11.3 00:21:39 16° NNW 00:21:52 16° NNW 00:29:18 10° N visible
03 Jul 9.0 19:30:38 10° SSW 19:36:20 33° SE 19:36:24 33° SE visible
03 Jul 10.6 21:33:13 10° WSW 21:51:54 11° NE 21:52:19 10° NE visible
03 Jul 11.2 23:49:10 17° NNW 23:49:10 17° NNW 23:56:18 10° N visible
04 Jul 9.1 18:58:57 10° S 19:03:54 25° SE 19:08:12 16° E visible
04 Jul 9.2 21:00:52 10° WSW 21:18:48 10° NE 21:18:58 10° NE visible
04 Jul 11.1 23:16:00 19° NNW 23:16:00 19° NNW 23:23:13 10° NNE visible
